| time (UTC) | temp C | wind direction | speed KPH | gust KPH | rain 1hr cm | rain 24hr cm | rain mn cm | humidity % | barometer mb |
| 20260502184715 | 8 | 219 | 1.6 | 3.2 | 0.00 | 0.00 | 0.00 | 76 | 1023.5 |
| 20260502183147 | 9 | 219 | 0.0 | 3.2 | 0.00 | 0.00 | 0.00 | 75 | 1023.6 |
| 20260502180205 | 10 | 219 | 0.0 | 4.8 | 0.00 | 0.00 | 0.00 | 69 | 1023.4 |
| 20260502170205 | 15 | 234 | 0.0 | 9.7 | 0.00 | 0.00 | 0.00 | 49 | 1023.6 |
| 20260502161658 | 16 | 248 | 4.8 | 12.9 | 0.00 | 0.00 | 0.00 | 45 | 1023.8 |
| 20260502151657 | 17 | 219 | 3.2 | 12.9 | 0.00 | 0.00 | 0.00 | 43 | 1024.2 |
| 20260502130151 | 17 | 17 | 1.6 | 17.7 | 0.00 | 0.00 | 0.00 | 47 | 1025.6 |
| 20260502123211 | 16 | 254 | 9.7 | 16.1 | 0.00 | 0.00 | 0.00 | 46 | 1025.9 |
| 20260502120156 | 16 | 349 | 4.8 | 12.9 | 0.00 | 0.00 | 0.00 | 46 | 1026.1 |
| 20260502113150 | 16 | 257 | 6.4 | 16.1 | 0.00 | 0.00 | 0.00 | 46 | 1026.5 |
| 20260502110222 | 16 | 227 | 4.8 | 11.3 | 0.00 | 0.00 | 0.00 | 47 | 1027.0 |
| 20260502104645 | 15 | 192 | 1.6 | 11.3 | 0.00 | 0.00 | 0.00 | 51 | 1027.1 |
| 20260502101719 | 15 | 232 | 4.8 | 14.5 | 0.00 | 0.00 | 0.00 | 50 | 1027.5 |
| 20260502100153 | 15 | 254 | 4.8 | 12.9 | 0.00 | 0.00 | 0.00 | 48 | 1027.5 |
| 20260502090201 | 14 | 183 | 3.2 | 12.9 | 0.00 | 0.00 | 0.00 | 47 | 1027.9 |
| 20260502070215 | 10 | 202 | 0.0 | 0.0 | 0.00 | 0.00 | 0.00 | 70 | 1028.4 |
| 20260502064705 | 7 | 202 | 0.0 | 0.0 | 0.00 | 0.00 | 0.00 | 76 | 1028.6 |
| 20260502063019 | 3 | 202 | 0.0 | 0.0 | 0.00 | 0.00 | 0.00 | 95 | 1028.9 |
| 20260502053212 | -1 | 202 | 0.0 | 0.0 | 0.00 | 0.00 | 0.00 | 94 | 1029.2 |
| 20260502051648 | -2 | 202 | 0.0 | 0.0 | 0.00 | 0.00 | 0.00 | 94 | 1029.4 |
| 20260502044705 | -2 | 202 | 0.0 | 0.0 | 0.00 | 0.00 | 0.00 | 93 | 1029.3 |
| 20260502043152 | -2 | 202 | 0.0 | 0.0 | 0.00 | 0.00 | 0.00 | 93 | 1029.2 |
| 20260502040216 | -2 | 209 | 0.0 | 0.0 | 0.00 | 0.00 | 0.00 | 92 | 1029.1 |
| 20260502033218 | -2 | 209 | 0.0 | 0.0 | 0.00 | 0.00 | 0.00 | 92 | 1029.2 |
| 20260502030206 | -2 | 209 | 0.0 | 0.0 | 0.00 | 0.00 | 0.00 | 92 | 1029.2 |
| 20260502024650 | -2 | 209 | 0.0 | 0.0 | 0.00 | 0.00 | 0.00 | 92 | 1029.2 |
| 20260502023147 | -2 | 209 | 0.0 | 0.0 | 0.00 | 0.00 | 0.00 | 91 | 1029.2 |
| 20260502020206 | -2 | 209 | 0.0 | 0.0 | 0.00 | 0.00 | 0.00 | 92 | 1029.3 |
| 20260502014701 | -2 | 209 | 0.0 | 0.0 | 0.00 | 0.00 | 0.00 | 91 | 1029.3 |
| 20260502013144 | -1 | 209 | 0.0 | 0.0 | 0.00 | 0.00 | 0.00 | 91 | 1029.4 |
| 20260502010204 | -1 | 209 | 0.0 | 0.0 | 0.00 | 0.00 | 0.00 | 90 | 1029.1 |
| 20260502003206 | -1 | 209 | 0.0 | 0.0 | 0.00 | 0.00 | 0.00 | 90 | 1029.1 |
| 20260502001644 | 0 | 209 | 0.0 | 0.0 | 0.00 | 0.00 | 0.00 | 90 | 1029.2 |
| 20260501234715 | 0 | 209 | 0.0 | 0.0 | 0.00 | 0.00 | 0.00 | 90 | 1029.3 |
| 20260501231716 | 0 | 209 | 0.0 | 0.0 | 0.00 | 0.00 | 0.00 | 89 | 1029.3 |
| 20260501230202 | 0 | 209 | 0.0 | 0.0 | 0.00 | 0.00 | 0.00 | 90 | 1029.3 |
| 20260501223204 | 0 | 209 | 0.0 | 0.0 | 0.00 | 0.00 | 0.00 | 88 | 1029.2 |
| 20260501220248 | 0 | 209 | 0.0 | 0.0 | 0.00 | 0.00 | 0.00 | 87 | 1028.9 |
| 20260501213213 | 0 | 209 | 0.0 | 3.2 | 0.00 | 0.00 | 0.00 | 89 | 1028.5 |
| 20260501210217 | 0 | 209 | 0.0 | 3.2 | 0.00 | 0.00 | 0.00 | 86 | 1028.3 |
| 20260501204650 | 1 | 209 | 0.0 | 3.2 | 0.00 | 0.00 | 0.00 | 85 | 1028.2 |
| 20260501201659 | 2 | 209 | 0.0 | 0.0 | 0.00 | 0.00 | 0.00 | 83 | 1028.0 |
| 20260501200144 | 2 | 209 | 0.0 | 3.2 | 0.00 | 0.00 | 0.00 | 82 | 1028.0 |
| 20260501193150 | 3 | 209 | 0.0 | 3.2 | 0.00 | 0.00 | 0.00 | 79 | 1027.7 |
| 20260501190147 | 5 | 209 | 0.0 | 3.2 | 0.00 | 0.00 | 0.00 | 73 | 1027.6 |